Regional Weather Roundup
Issued by NWS

Home | Current Version | Previous Version | Text Only | Print | Product List | Glossary On
Versions: 1 2 3 4 5 6 7 8 9 10 11 12 13 14 15 16 17 18 19 20 21 22 23 24 25 26 27 28 29 30 31 32 33 34 35 36 37 38 39 40 41 42 43 44 45 46 47 48 49 50
730
ASUS43 KDMX 201106
RWRIA

WEATHER ROUNDUP FOR IOWA
NATIONAL WEATHER SERVICE DES MOINES IA
500 AM CST SAT JAN 20 2018

NOTE: "FAIR" INDICATES FEW OR NO CLOUDS BELOW 12,000 FEET WITH NO
SIGNIFICANT WEATHER AND/OR OBSTRUCTIONS TO VISIBILITY.

* - THESE STATIONS ARE NOT NWS STATIONS...THUS NOT UNDER NWS
QUALITY CONTROL.  THEY ALSO DO NOT REPORT WEATHER SUCH
AS PRECIPITATION OR FOG.

IAZ001>003-012>014-020>022-031>034-043>046-201200-
   NORTHWEST IOWA

CITY           SKY/WX    TMP DP  RH WIND       PRES   REMARKS
CARROLL *      CLOUDY    28  27  93 NW5       29.80S WCI  23
CHEROKEE *     CLOUDY    25  25 100 CALM      29.83R
DENISON *      CLOUDY    27  27 100 CALM      29.82R
LE MARS *      CLOUDY    27  25  93 CALM      29.82S
ORANGE CITY *  CLOUDY    30  30 100 CALM      29.81S
SHELDON *      CLOUDY    27  27 100 CALM      29.80R
SIOUX CITY     PTCLDY    26  26 100 N3        29.82R
SPENCER        CLOUDY    24  22  91 W5        29.82R WCI  18
STORM LAKE *   CLOUDY    34  30  86 NW3       29.81R
$$

IAZ055>058-069>071-079>083-090>094-201200-
   SOUTHWEST IOWA

CITY           SKY/WX    TMP DP  RH WIND       PRES   REMARKS
ATLANTIC *     CLOUDY    25  25 100 CALM      29.81R
AUDUBON *      CLOUDY    21  18  86 CALM      29.81R
CLARINDA *     CLOUDY    23  23 100 SW5         N/A  WCI  17
COUNCIL BLFS * CLOUDY    30  30 100 CALM      29.80R
CRESTON *      CLOUDY    28  27  93 S7        29.82S WCI  21
HARLAN  *      CLOUDY    23  23 100 N3        29.84R
LAMONI         CLOUDY    32  26  78 S9        29.83S WCI  24
RED OAK *      CLOUDY    25  23  93 CALM      29.82R
SHENANDOAH *   CLOUDY    30  27  86 S7        29.83R WCI  23
$$

IAZ047>049-059>061-072>074-084-201200-
   CENTRAL IOWA

CITY           SKY/WX    TMP DP  RH WIND       PRES   REMARKS
AMES           CLOUDY    27  27 100 CALM      29.81R
ANKENY *       CLOUDY    28  27  93 S5        29.83R WCI  23
BOONE *        CLOUDY    28  27  93 CALM      29.80R
CHARITON *     CLOUDY    34  28  80 SW8       29.83R WCI  27
DES MOINES     MOCLDY    31  26  82 S5        29.82S WCI  26
GRINNELL*      CLOUDY    31  27  85 SW9       29.83R WCI  23
KNOXVILLE *    PTCLDY    34  27  75 SW6       29.81S WCI  29
MARSHALLTOWN   CLOUDY    30  27  88 S5        29.81R WCI  25
NEWTON *       CLOUDY    32  27  80 SW7       29.82S WCI  26
PELLA *        CLOUDY    32  27  79 S3        29.84S
PERRY *          N/A     28  27  96 W3        29.81R
$$

IAZ004>006-015-016-023>025-035-036-201200-
   NORTH CENTRAL IOWA

CITY           SKY/WX    TMP DP  RH WIND       PRES   REMARKS
ALGONA *       CLOUDY    32 N/A N/A NW6       29.81R WCI  26
CLARION *      PTCLDY    28  28 100 CALM      29.80R
ESTHERVILLE    CLOUDY    29  28  96 N5        29.81R WCI  24
FORT DODGE *   PTCLDY    25  23  92 CALM      29.81R
MASON CITY     CLOUDY    24  22  91 NW6       29.80R WCI  17
FOREST CITY *    N/A     30  30 100 NW3       29.80R
WEBSTER CITY * CLOUDY    30  28  93 CALM      29.79R
IOWA FALLS *     N/A     30  28  94 CALM      29.80S
$$

IAZ007>011-017>019-026>030-037>042-050>054-066-201200-
   NORTHEAST IOWA

CITY           SKY/WX    TMP DP  RH WIND       PRES   REMARKS
CEDAR RAPIDS     N/A     32  26  78 SW6       29.82R WCI  26
CHARLES CITY *   N/A     30  30 100 CALM      29.80R
CLINTON *        N/A     32  28  85 SW8       29.84S WCI  25
DECORAH *        N/A     32  30  93 CALM      29.77S
DUBUQUE          N/A     28  24  85 CALM      29.81R
MONTICELLO *     N/A     30  27  86 CALM      29.82R
OELWEIN *        N/A     28  28 100 SW5       29.80R WCI  23
WATERLOO         N/A     26  24  92 CALM      29.80R FOG
$$

IAZ064-065-067-068-078-201200-
   EAST CENTRAL IOWA

CITY           SKY/WX    TMP DP  RH WIND       PRES   REMARKS
DAVENPORT        N/A     36  28  73 SW7       29.85S WCI  30
IOWA CITY        N/A     30  25  81 CALM      29.86R
MT. PLEASANT * CLOUDY    32  28  86 SW7       29.86S WCI  26
MUSCATINE *      N/A     36  28  75 SW6       29.86R WCI  31
QUAD CITIES      N/A     35  28  75 SW3       29.84R
$$

IAZ062-063-075>077-085>089-095>099-201200-
   SOUTHEAST IOWA

CITY           SKY/WX    TMP DP  RH WIND       PRES   REMARKS
BURLINGTON     CLOUDY    34  27  75 SW9       29.86S WCI  27
FAIRFIELD *    CLOUDY    34  27  75 SW7       29.84S WCI  28
FORT MADISON * CLOUDY    37  30  75 SW9       29.88R WCI  31
KEOKUK *       PTCLDY    36  30  80 SW9       29.88R WCI  29
OSKALOOSA *      N/A     31  27  84 SW6       29.84R WCI  26
OTTUMWA        CLOUDY    35  27  72 SW6       29.84R WCI  30
WASHINGTON *   CLOUDY    34  30  86 SW7       29.86R WCI  28
$$

ABBREVIATIONS USED IN REMARKS
   TC - TEMPERATURES IN CELSIUS
  WCI - WIND CHILL INDEX
   HX - HEAT INDEX
  VSB - VISIBILITY
$$





USA.gov is the U.S. government's official web portal to all federal, state and local government web resources and services.